Terug naar catalogus

FENGYUN 1C DEB

ActiefSSO
NORAD 37438·DEBRIS·🇨🇳 China

Gelanceerd May 10, 1999 vanaf Taiyuan Satellite Launch Center

Loading…

Volgende Passages (komende 24 uur)

TLE

VersSource: Space-Track

Epoch: Sep 13, 2026, 08:14 UTC

1 37438U 99025EHG 26256.34332138  .00000701  00000-0  37516-3 0  9991
2 37438  98.7143 294.6608 0029690 155.1817 205.0793 14.16101687640212

Volg FENGYUN 1C DEB in realtime met AllMySat

Download on the App Store